Hourly Data Report for July 19, 2002

SHERBROOKE A
QUEBEC

45°26'00.000" N
71°41'00.000" W
241.40 m
7028124
71610
YSC

Download Data

Hourly Data (July 2002)
Hourly Data Report for July 19, 2002
TIME
LST
Temp Definition
°C
Dew Point Definition
°C
Rel Hum Definition
%
Precip. Amount Definition
mm

Wind Dir Definition
10's deg

Wind Spd Definition
km/h
Visibility Definition
km
Stn Press Definition
kPa
Hmdx Definition


Wind Chill Definition


Weather Definition


00:00 10.0 9.6 97   7 4 15.0 98.52      
01:00 9.5 9.0 97   9 6 15.0 98.47      
02:00 8.9 8.4 97   9 7 15.0 98.46      
03:00 7.9 7.5 97   8 6 15.0 98.45      
04:00 8.1 7.7 97   9 6 15.0 98.46      
05:00 8.1 7.8 98   8 6 15.0 98.43      
06:00 10.0 9.4 96   6 4 15.0 98.48      
07:00 11.4 10.9 97   9 6 24.1 98.47     Cloudy
08:00 13.3 12.0 92   8 6 24.1 98.42     Cloudy
09:00 15.3 13.1 87   8 4 24.1 98.41     Cloudy
10:00 17.2 14.3 83   4 4 24.1 98.37     Cloudy
11:00 19.9 15.3 75   31 4 24.1 98.34     Mostly Cloudy
12:00 19.8 15.2 75   33 4 24.1 98.31     Cloudy
13:00 19.4 15.5 78   29 7 24.1 98.32     Cloudy
14:00 19.6 14.9 74   23 4 24.1 98.31     Cloudy
15:00 20.8 15.0 69   25 6 24.1 98.25 25   Cloudy
16:00 22.2 15.9 67   27 4 24.1 98.22 27   Mostly Cloudy
17:00 21.6 15.2 67   19 4 15.0 98.19 26    
18:00 20.9 16.7 77     0 15.0 98.26 26    
19:00 19.5 16.6 83   32 4 15.0 98.29      
20:00 16.8 15.7 93   1 4 15.0 98.32      
21:00 14.1 12.6 91   10 4 15.0 98.38      
22:00 12.7 11.9 95   2 4 15.0 98.38      
23:00 11.3 10.5 95     0 15.0 98.37      

Notes on Data Quality.

Legend

  • E = Estimated
  • M = Missing
  • NA = Not Available*
  • [empty] = Indicates an unobserved value
Date modified: